User: anonymous   Login
Location: Düngen
(52.0952°N, 10.0219°E)
Time: 02:33:10
(UTC+00:00)
Language:

NOSS 2-2 (C) - Orbit

View from above orbital plane
View from above orbital plane
View from above satellite
View from above satellite

Ground track
Ground track

The orbit is defined by the following mean orbital elements,

1 21799U          26137.69995469 +.00000000 +00000-0 +23835-3 0 00001
2 21799  63.2953 225.8729 0882961  72.6469 296.9113 13.61265036    05
Epoch (UTC): 17 May 2026 16:47:56
Eccentricity: 0.0882961
inclination: 63.2953°
perigee height: 377 km
apogee height: 1685 km
right ascension of ascending node: 225.8729°
argument of perigee: 72.6469°
revolutions per day: 13.61265036
mean anomaly at epoch: 296.9113°

The dashed part of the orbit path shows where the satellite is in the earth's shadow,  

DLR